Flag for U.S.A. Weather past 2 weeks in Newark, New Jersey, U.S.A.

Now
61 °F

Scattered clouds.


Feels Like: 61 °F
Forecast: 42 / 61 °F
Wind: 10 mph from Northeast

Location: Newark International Airport

Current Time: Apr 26, 2015 at 1:36:12 PM

Latest Report: Apr 26, 2015 at 12:51 PM


Visibility: 10 mi

Pressure: 29.68 "Hg

Humidity: 30%

Dew point: 29 °F

Location of NewarkLocation

Historic Weather in Newark — Graph

°F

Newark temperature yesterday

Maximum temperature yesterday: 61 °F (at 3:51 PM)
Minimum temperature yesterday: 37 °F (at 3:51 AM)
Average temperature yesterday: 49 °F

Past Weeks' High & Low Weather Summary

 TemperatureHumidityPressure
High81 °F (Apr 18, 5:51 PM)100% (Apr 20, 10:51 PM)30.48 "Hg (Apr 20, 10:51 PM)
Low37 °F (Apr 25, 3:51 AM)10% (Apr 15, 5:51 PM)29.52 "Hg (Apr 22, 2:51 PM)
Average56 °F48%29.99 "Hg
* Reported Apr 11 11:51 AM — Apr 26 11:51 AM, Newark, Weather by CustomWeather, © 2015

Note: Actual official high and low records may vary slightly from our data, if they occured in-between our weather recording intervals... More about our weather records

Advertising

Newark weather history for previous 24 hours

 ConditionsComfort  
Time TempWeatherWind HumidityBarometerVisibility
11:51 AM
Sun, Apr 26
57 °FScattered clouds.3 mph32%29.70 "Hg10 mi
10:51 AM57 °FScattered clouds.7 mph32%29.71 "Hg10 mi
9:51 AM54 °FScattered clouds.9 mph38%29.71 "Hg10 mi
8:51 AM51 °FScattered clouds.9 mph44%29.71 "Hg10 mi
7:51 AM49 °FScattered clouds.10 mph52%29.70 "Hg10 mi
6:51 AM46 °FPassing clouds.10 mph56%29.69 "Hg10 mi
5:51 AM44 °FPassing clouds.10 mph58%29.69 "Hg10 mi
4:51 AM45 °FPassing clouds.13 mph53%29.68 "Hg10 mi
3:51 AM45 °FPassing clouds.12 mph53%29.67 "Hg10 mi
2:51 AM46 °FPassing clouds.9 mph51%29.67 "Hg10 mi
1:51 AM50 °FPassing clouds.12 mph44%29.68 "Hg10 mi
12:51 AM50 °FPassing clouds.12 mph43%29.69 "Hg10 mi
11:51 PM
Sat, Apr 25
50 °FPassing clouds.13 mph43%29.70 "Hg10 mi
10:51 PM52 °FPassing clouds.16 mph38%29.69 "Hg10 mi
9:51 PM54 °FPassing clouds.No wind45%29.70 "Hg10 mi
8:51 PM55 °FPassing clouds.9 mph29%29.70 "Hg10 mi
7:51 PM58 °FPartly sunny.7 mph23%29.69 "Hg10 mi
6:51 PM60 °FPartly sunny.12 mph21%29.68 "Hg10 mi
5:51 PM61 °FPartly sunny.3 mph22%29.69 "Hg10 mi
4:51 PM61 °FPartly sunny.9 mph22%29.70 "Hg10 mi
3:51 PM61 °FPartly sunny.17 mph21%29.72 "Hg10 mi
2:51 PM59 °FScattered clouds.12 mph26%29.75 "Hg10 mi
1:51 PM57 °FScattered clouds.13 mph28%29.79 "Hg10 mi
Weather by CustomWeather, © 2015

See weather overviewHow to use our weather pages